,,,PA_Meas_PMT16A,,PR_Meas_QMR101_102,,RH_Meas_QMH101,,SR_Meas_QMS101,,TA_Meas_QMH101,,GenWind,,GenWind,
date,time,status,PA,status,PR,status,RH,status,SR,status,TA,status,DirAvg,status,SpdAvg,
2011-02-03, 00:00:04,VALID,998.832,VALID,0,VALID,91.0443,VALID,0,VALID,24.6184,VALID,235,VALID,0,
2011-02-03, 00:01:04,VALID,998.82,VALID,0,VALID,91.0671,VALID,0,VALID,24.6184,VALID,235,VALID,0,
2011-02-03, 00:02:04,VALID,998.802,VALID,0,VALID,91.0595,VALID,0,VALID,24.6184,VALID,235,VALID,0,
2011-02-03, 00:03:04,VALID,998.776,VALID,0,VALID,91.0366,VALID,0,VALID,24.6184,VALID,235,VALID,0,
2011-02-03, 00:04:04,VALID,998.768,VALID,0,VALID,91.0214,VALID,0,VALID,24.6184,VALID,230,VALID,0.466797,
2011-02-03, 00:05:04,VALID,998.727,VALID,0,VALID,91.0443,VALID,0,VALID,24.6594,VALID,213,VALID,0.920313,
2011-02-03, 00:06:04,VALID,998.692,VALID,0,VALID,91.0595,VALID,0,VALID,24.716,VALID,215,VALID,0.362109,
2011-02-03, 00:07:04,VALID,998.663,VALID,0,VALID,91.0519,VALID,0,VALID,24.7356,VALID,215,VALID,0.106641,
2011-02-03, 00:08:04,VALID,998.638,VALID,0,VALID,91.029,VALID,0,VALID,24.7551,VALID,215,VALID,0.683203,
2011-02-03, 00:09:04,VALID,998.598,VALID,0,VALID,90.9069,VALID,0,VALID,24.7551,VALID,215,VALID,0.760156,
2011-02-03, 00:10:04,VALID,998.612,VALID,0,VALID,90.7849,VALID,0,VALID,24.7941,VALID,215,VALID,0.540625,
2011-02-03, 00:11:04,VALID,998.574,VALID,0,VALID,90.6246,VALID,0,VALID,24.8546,VALID,215,VALID,0.0289063,
2011-02-03, 00:12:04,VALID,998.568,VALID,0,VALID,90.5026,VALID,0,VALID,24.8332,VALID,215,VALID,0,
2011-02-03, 00:13:04,VALID,998.522,VALID,0,VALID,90.3652,VALID,0,VALID,24.8332,VALID,215,VALID,0,
2011-02-03, 00:14:04,VALID,998.511,VALID,0,VALID,90.2584,VALID,0,VALID,24.8546,VALID,215,VALID,0,
2011-02-03, 00:15:04,VALID,998.487,VALID,0,VALID,90.2203,VALID,0,VALID,24.8722,VALID,215,VALID,0,
2011-02-03, 00:16:04,VALID,998.488,VALID,0,VALID,90.1821,VALID,0,VALID,24.8527,VALID,215,VALID,0,
2011-02-03, 00:17:04,VALID,998.445,VALID,0,VALID,90.1592,VALID,0,VALID,24.8332,VALID,215,VALID,0,
2011-02-03, 00:18:04,VALID,998.445,VALID,0,VALID,90.1516,VALID,0,VALID,24.8332,VALID,215,VALID,0,
2011-02-03, 00:19:04,VALID,998.358,VALID,0,VALID,90.1592,VALID,0,VALID,24.8136,VALID,215,VALID,0,
2011-02-03, 00:20:04,VALID,998.324,VALID,0,VALID,90.1821,VALID,0,VALID,24.8155,VALID,215,VALID,0,
2011-02-03, 00:21:04,VALID,998.292,VALID,0,VALID,90.2126,VALID,0,VALID,24.796,VALID,215,VALID,0,
2011-02-03, 00:22:04,VALID,998.29,VALID,0,VALID,90.2966,VALID,0,VALID,24.796,VALID,215,VALID,0,
2011-02-03, 00:23:04,VALID,998.316,VALID,0,VALID,90.3805,VALID,0,VALID,24.7746,VALID,215,VALID,0,
2011-02-03, 00:24:04,VALID,998.277,VALID,0,VALID,90.5026,VALID,0,VALID,24.7551,VALID,215,VALID,0,
2011-02-03, 00:25:04,VALID,998.222,VALID,0,VALID,90.5712,VALID,0,VALID,24.7551,VALID,215,VALID,0,
2011-02-03, 00:26:04,VALID,998.187,VALID,0,VALID,90.6017,VALID,0,VALID,24.757,VALID,215,VALID,0,
2011-02-03, 00:27:04,VALID,998.192,VALID,0,VALID,90.5636,VALID,0,VALID,24.757,VALID,207,VALID,0.536328,
2011-02-03, 00:28:04,VALID,998.118,VALID,0,VALID,90.5331,VALID,0,VALID,24.757,VALID,207,VALID,0.34375,
2011-02-03, 00:29:04,VALID,998.111,VALID,0,VALID,90.5102,VALID,0,VALID,24.7551,VALID,207,VALID,0.576172,
2011-02-03, 00:30:04,VALID,998.07,VALID,0,VALID,90.3728,VALID,0,VALID,24.757,VALID,209,VALID,0.783594,
2011-02-03, 00:31:04,VALID,998.021,VALID,0,VALID,90.0219,VALID,0,VALID,24.835,VALID,212,VALID,0.774219,
2011-02-03, 00:32:04,VALID,998.005,VALID,0,VALID,89.6404,VALID,0,VALID,24.8722,VALID,212,VALID,0.714063,
2011-02-03, 00:33:04,VALID,997.98,VALID,0,VALID,89.0377,VALID,0,VALID,24.9112,VALID,212,VALID,0.865625,
2011-02-03, 00:34:04,VALID,997.948,VALID,0,VALID,88.3968,VALID,0,VALID,24.9698,VALID,212,VALID,0.748438,
2011-02-03, 00:35:04,VALID,997.904,VALID,0,VALID,88.145,VALID,0,VALID,25.0088,VALID,212,VALID,0.369922,
2011-02-03, 00:36:04,VALID,997.883,VALID,0,VALID,88.1755,VALID,0,VALID,25.0088,VALID,224,VALID,0.408594,
2011-02-03, 00:37:04,VALID,997.89,VALID,0,VALID,88.6714,VALID,0,VALID,24.9893,VALID,224,VALID,0.03125,
2011-02-03, 00:38:04,VALID,997.86,VALID,0,VALID,89.03,VALID,0,VALID,24.9503,VALID,224,VALID,0,
2011-02-03, 00:39:04,VALID,997.849,VALID,0,VALID,89.2589,VALID,0,VALID,24.9112,VALID,224,VALID,0,
2011-02-03, 00:40:04,VALID,997.856,VALID,0,VALID,89.3963,VALID,0,VALID,24.8527,VALID,224,VALID,0,
2011-02-03, 00:41:04,VALID,997.831,VALID,0,VALID,89.5565,VALID,0,VALID,24.8332,VALID,224,VALID,0,
2011-02-03, 00:42:04,VALID,997.86,VALID,0,VALID,89.6328,VALID,0,VALID,24.7941,VALID,224,VALID,0,
2011-02-03, 00:43:04,VALID,997.845,VALID,0,VALID,89.6709,VALID,0,VALID,24.8155,VALID,224,VALID,0,
2011-02-03, 00:44:04,VALID,997.805,VALID,0,VALID,89.7014,VALID,0,VALID,24.7941,VALID,224,VALID,0,
2011-02-03, 00:45:04,VALID,997.79,VALID,0,VALID,89.8235,VALID,0,VALID,24.8155,VALID,224,VALID,0,
2011-02-03, 00:46:04,VALID,997.813,VALID,0,VALID,89.9837,VALID,0,VALID,24.7941,VALID,224,VALID,0,
2011-02-03, 00:47:04,VALID,997.844,VALID,0,VALID,90.0906,VALID,0,VALID,24.796,VALID,219,VALID,0.503516,
2011-02-03, 00:48:04,VALID,997.763,VALID,0,VALID,90.0295,VALID,0,VALID,24.7551,VALID,176,VALID,1.36523,
2011-02-03, 00:49:04,VALID,997.813,VALID,0,VALID,89.2132,VALID,0,VALID,24.8936,VALID,259,VALID,1.50977,
2011-02-03, 00:50:04,VALID,997.801,VALID,0,VALID,89.3123,VALID,0,VALID,24.9308,VALID,278,VALID,0.386719,
2011-02-03, 00:51:04,VALID,997.773,VALID,0,VALID,89.3886,VALID,0,VALID,24.9112,VALID,278,VALID,0.000390625,
2011-02-03, 00:52:04,VALID,997.751,VALID,0,VALID,89.4191,VALID,0,VALID,24.8722,VALID,278,VALID,0.264453,
2011-02-03, 00:53:04,VALID,997.716,VALID,0,VALID,89.4802,VALID,0,VALID,24.8527,VALID,278,VALID,0.203906,
2011-02-03, 00:54:04,VALID,997.7,VALID,0,VALID,89.6099,VALID,0,VALID,24.8722,VALID,278,VALID,0,
2011-02-03, 00:55:04,VALID,997.695,VALID,0,VALID,89.7549,VALID,0,VALID,24.8527,VALID,278,VALID,0,
2011-02-03, 00:56:04,VALID,997.661,VALID,0,VALID,89.854,VALID,0,VALID,24.835,VALID,278,VALID,0,
2011-02-03, 00:57:04,VALID,997.633,VALID,0,VALID,89.9303,VALID,0,VALID,24.7941,VALID,278,VALID,0,
2011-02-03, 00:58:04,VALID,997.597,VALID,0,VALID,90.0219,VALID,0,VALID,24.7551,VALID,203,VALID,0.103125,
2011-02-03, 00:59:04,VALID,997.593,VALID,0,VALID,90.0219,VALID,0,VALID,24.716,VALID,174,VALID,0.334375,
2011-02-03, 01:00:04,VALID,997.618,VALID,0,VALID,90.0524,VALID,0,VALID,24.6965,VALID,174,VALID,0.334766,
2011-02-03, 01:01:04,VALID,997.58,VALID,0,VALID,90.0448,VALID,0,VALID,24.677,VALID,174,VALID,0.484375,
2011-02-03, 01:02:04,VALID,997.546,VALID,0,VALID,90.0829,VALID,0,VALID,24.6575,VALID,174,VALID,0.698047,
2011-02-03, 01:03:04,VALID,997.535,VALID,0,VALID,90.0371,VALID,0,VALID,24.6575,VALID,129,VALID,1.02813,
2011-02-03, 01:04:04,VALID,997.518,VALID,0,VALID,90.0143,VALID,0,VALID,24.6575,VALID,126,VALID,0.964453,
2011-02-03, 01:05:04,VALID,997.529,VALID,0,VALID,90.0219,VALID,0,VALID,24.6575,VALID,94,VALID,0.853125,
2011-02-03, 01:06:04,VALID,997.484,VALID,0,VALID,90.1058,VALID,0,VALID,24.677,VALID,95,VALID,1.01094,
2011-02-03, 01:07:04,VALID,997.467,VALID,0,VALID,90.1897,VALID,0,VALID,24.6789,VALID,100,VALID,1.13633,
2011-02-03, 01:08:04,VALID,997.49,VALID,0,VALID,90.3576,VALID,0,VALID,24.677,VALID,101,VALID,0.905859,
2011-02-03, 01:09:04,VALID,997.442,VALID,0,VALID,90.6094,VALID,0,VALID,24.6965,VALID,107,VALID,1.26875,
2011-02-03, 01:10:04,VALID,997.457,VALID,0,VALID,90.8077,VALID,0,VALID,24.6965,VALID,110,VALID,1.33438,
2011-02-03, 01:11:04,VALID,997.454,VALID,0,VALID,90.9222,VALID,0,VALID,24.677,VALID,110,VALID,1.14453,
2011-02-03, 01:12:04,VALID,997.458,VALID,0,VALID,90.9756,VALID,0,VALID,24.638,VALID,106,VALID,1.07305,
2011-02-03, 01:13:04,VALID,997.484,VALID,0,VALID,90.9985,VALID,0,VALID,24.6184,VALID,103,VALID,1.08242,
2011-02-03, 01:14:04,VALID,997.494,VALID,0,VALID,90.9374,VALID,0,VALID,24.5794,VALID,105,VALID,0.805078,
2011-02-03, 01:15:04,VALID,997.489,VALID,0,VALID,90.8535,VALID,0,VALID,24.5599,VALID,98,VALID,0.871094,
2011-02-03, 01:16:04,VALID,997.506,VALID,0,VALID,90.823,VALID,0,VALID,24.5618,VALID,101,VALID,0.782422,
2011-02-03, 01:17:04,VALID,997.473,VALID,0,VALID,90.8154,VALID,0,VALID,24.5404,VALID,101,VALID,0.530469,
2011-02-03, 01:18:04,VALID,997.461,VALID,0,VALID,90.8077,VALID,0,VALID,24.5209,VALID,101,VALID,0.826563,
2011-02-03, 01:19:04,VALID,997.453,VALID,0,VALID,90.8459,VALID,0,VALID,24.5209,VALID,101,VALID,0.544922,
2011-02-03, 01:20:04,VALID,997.452,VALID,0,VALID,90.8383,VALID,0,VALID,24.5013,VALID,85,VALID,0.495703,
2011-02-03, 01:21:04,VALID,997.461,VALID,0,VALID,90.9069,VALID,0,VALID,24.5013,VALID,60,VALID,0.767578,
2011-02-03, 01:22:04,VALID,997.446,VALID,0,VALID,90.9222,VALID,0,VALID,24.4818,VALID,57,VALID,0.653906,
2011-02-03, 01:23:04,VALID,997.433,VALID,0,VALID,90.9527,VALID,0,VALID,24.4818,VALID,57,VALID,0.653125,
2011-02-03, 01:24:04,VALID,997.456,VALID,0,VALID,90.9603,VALID,0,VALID,24.4837,VALID,57,VALID,0.567578,
2011-02-03, 01:25:04,VALID,997.459,VALID,0,VALID,90.9222,VALID,0,VALID,24.4623,VALID,57,VALID,0.632031,
2011-02-03, 01:26:04,VALID,997.453,VALID,0,VALID,90.8917,VALID,0,VALID,24.4642,VALID,57,VALID,0.467578,
2011-02-03, 01:27:04,VALID,997.405,VALID,0,VALID,90.9069,VALID,0,VALID,24.4604,VALID,57,VALID,0.396484,
2011-02-03, 01:28:04,VALID,997.427,VALID,0,VALID,90.9603,VALID,0,VALID,24.4604,VALID,57,VALID,0.654688,
2011-02-03, 01:29:04,VALID,997.43,VALID,0,VALID,91.0443,VALID,0,VALID,24.4604,VALID,57,VALID,0.495313,
2011-02-03, 01:30:04,VALID,997.399,VALID,0,VALID,91.0519,VALID,0,VALID,24.4604,VALID,57,VALID,0.510938,
2011-02-03, 01:31:04,VALID,997.386,VALID,0,VALID,91.0748,VALID,0,VALID,24.4604,VALID,57,VALID,0.235938,
2011-02-03, 01:32:04,VALID,997.362,VALID,0,VALID,91.0671,VALID,0,VALID,24.4604,VALID,57,VALID,0.586719,
2011-02-03, 01:33:04,VALID,997.366,VALID,0,VALID,91.0443,VALID,0,VALID,24.4214,VALID,57,VALID,0.235938,
2011-02-03, 01:34:04,VALID,997.359,VALID,0,VALID,91.029,VALID,0,VALID,24.4214,VALID,57,VALID,0,
2011-02-03, 01:35:04,VALID,997.334,VALID,0,VALID,91.0061,VALID,0,VALID,24.4214,VALID,57,VALID,0,
2011-02-03, 01:36:04,VALID,997.333,VALID,0,VALID,90.968,VALID,0,VALID,24.4233,VALID,57,VALID,0.00117188,
2011-02-03, 01:37:04,VALID,997.327,VALID,0,VALID,90.9298,VALID,0,VALID,24.4019,VALID,57,VALID,0.125391,
2011-02-03, 01:38:04,VALID,997.27,VALID,0,VALID,90.9222,VALID,0,VALID,24.3824,VALID,57,VALID,0.136719,
2011-02-03, 01:39:04,VALID,997.271,VALID,0,VALID,90.8993,VALID,0.112286,VALID,24.3824,VALID,57,VALID,0.0078125,
2011-02-03, 01:40:04,VALID,997.27,VALID,0,VALID,90.9374,VALID,0,VALID,24.3824,VALID,57,VALID,0,
2011-02-03, 01:41:04,VALID,997.243,VALID,0,VALID,90.9222,VALID,0.112286,VALID,24.4019,VALID,57,VALID,0.1125,
2011-02-03, 01:42:04,VALID,997.208,VALID,0,VALID,90.9298,VALID,0,VALID,24.3647,VALID,57,VALID,0,
2011-02-03, 01:43:04,VALID,997.216,VALID,0,VALID,90.9603,VALID,0,VALID,24.3861,VALID,57,VALID,0.00117188,
2011-02-03, 01:44:04,VALID,997.21,VALID,0,VALID,90.9222,VALID,0,VALID,24.3647,VALID,57,VALID,0.566797,
2011-02-03, 01:45:04,VALID,997.17,VALID,0,VALID,90.8459,VALID,0,VALID,24.3647,VALID,117,VALID,0.589063,
2011-02-03, 01:46:04,VALID,997.202,VALID,0,VALID,90.7238,VALID,0,VALID,24.4056,VALID,117,VALID,0.480469,
2011-02-03, 01:47:04,VALID,997.176,VALID,0,VALID,90.5636,VALID,0,VALID,24.3842,VALID,117,VALID,0.460547,
2011-02-03, 01:48:04,VALID,997.184,VALID,0,VALID,90.4949,VALID,0,VALID,24.4251,VALID,117,VALID,0.79375,
2011-02-03, 01:49:04,VALID,997.169,VALID,0,VALID,90.411,VALID,0,VALID,24.4233,VALID,117,VALID,0.492578,
2011-02-03, 01:50:04,VALID,997.111,VALID,0,VALID,90.3347,VALID,0,VALID,24.4642,VALID,117,VALID,0.654688,
2011-02-03, 01:51:04,VALID,997.133,VALID,0,VALID,90.2966,VALID,0,VALID,24.4428,VALID,115,VALID,0.871875,
2011-02-03, 01:52:04,VALID,997.097,VALID,0,VALID,90.3042,VALID,0,VALID,24.4428,VALID,113,VALID,1.0168,
2011-02-03, 01:53:04,VALID,997.134,VALID,0,VALID,90.4186,VALID,0,VALID,24.4233,VALID,112,VALID,0.791406,
2011-02-03, 01:54:04,VALID,997.116,VALID,0,VALID,90.3576,VALID,0,VALID,24.4037,VALID,111,VALID,1.07695,
2011-02-03, 01:55:04,VALID,997.101,VALID,0,VALID,90.2966,VALID,0,VALID,24.4251,VALID,113,VALID,0.871484,
2011-02-03, 01:56:04,VALID,997.088,VALID,0,VALID,90.1897,VALID,0,VALID,24.4233,VALID,102,VALID,1.49805,
2011-02-03, 01:57:04,VALID,997.077,VALID,0,VALID,90.0143,VALID,0,VALID,24.4037,VALID,106,VALID,1.80781,
2011-02-03, 01:58:04,VALID,997.112,VALID,0,VALID,89.7701,VALID,0,VALID,24.4233,VALID,109,VALID,1.33906,
2011-02-03, 01:59:04,VALID,997.142,VALID,0,VALID,89.6862,VALID,0,VALID,24.4233,VALID,112,VALID,1.36641,
2011-02-03, 02:00:04,VALID,997.117,VALID,0,VALID,89.7091,VALID,0,VALID,24.4428,VALID,119,VALID,1.68008,
2011-02-03, 02:01:04,VALID,997.118,VALID,0,VALID,89.8235,VALID,0,VALID,24.4428,VALID,118,VALID,1.5043,
2011-02-03, 02:02:04,VALID,997.098,VALID,0,VALID,90.0219,VALID,0,VALID,24.4623,VALID,120,VALID,1.29961,
2011-02-03, 02:03:04,VALID,997.113,VALID,0,VALID,90.1516,VALID,0,VALID,24.4818,VALID,121,VALID,1.17773,
2011-02-03, 02:04:04,VALID,997.12,VALID,0,VALID,90.1745,VALID,0.112286,VALID,24.4604,VALID,130,VALID,1.27617,
2011-02-03, 02:05:04,VALID,997.088,VALID,0,VALID,90.2431,VALID,0,VALID,24.4623,VALID,129,VALID,1.35508,
2011-02-03, 02:06:04,VALID,997.074,VALID,0,VALID,90.2126,VALID,0,VALID,24.4623,VALID,136,VALID,1.41836,
2011-02-03, 02:07:04,VALID,997.063,VALID,0,VALID,90.1592,VALID,0,VALID,24.4623,VALID,136,VALID,0.875,
2011-02-03, 02:08:04,VALID,997.02,VALID,0,VALID,90.1058,VALID,0,VALID,24.4623,VALID,150,VALID,0.634375,
2011-02-03, 02:09:04,VALID,996.992,VALID,0,VALID,90.0448,VALID,0,VALID,24.4623,VALID,155,VALID,0.238672,
2011-02-03, 02:10:04,VALID,996.984,VALID,0,VALID,90.0448,VALID,0,VALID,24.4623,VALID,157,VALID,0.444531,
2011-02-03, 02:11:04,VALID,996.96,VALID,0,VALID,90.0906,VALID,0,VALID,24.4818,VALID,183,VALID,0.744141,
2011-02-03, 02:12:04,VALID,996.961,VALID,0,VALID,90.2584,VALID,0,VALID,24.5404,VALID,197,VALID,0.850781,
2011-02-03, 02:13:04,VALID,996.943,VALID,0,VALID,90.1134,VALID,0,VALID,24.5599,VALID,171,VALID,0.994141,
2011-02-03, 02:14:04,VALID,996.943,VALID,0,VALID,89.8235,VALID,0,VALID,24.5775,VALID,196,VALID,1.20313,
2011-02-03, 02:15:04,VALID,996.967,VALID,0,VALID,89.4497,VALID,0,VALID,24.677,VALID,196,VALID,1.14531,
2011-02-03, 02:16:04,VALID,996.955,VALID,0,VALID,89.236,VALID,0,VALID,24.7746,VALID,201,VALID,1.10273,
2011-02-03, 02:17:04,VALID,996.948,VALID,0,VALID,88.8927,VALID,0,VALID,24.8136,VALID,208,VALID,1.28008,
2011-02-03, 02:18:04,VALID,996.961,VALID,0,VALID,88.4731,VALID,0,VALID,24.8722,VALID,201,VALID,1.41797,
2011-02-03, 02:19:04,VALID,996.94,VALID,0,VALID,88.145,VALID,0,VALID,24.8917,VALID,194,VALID,1.18711,
2011-02-03, 02:20:04,VALID,996.954,VALID,0,VALID,88.084,VALID,0,VALID,24.8917,VALID,190,VALID,1.29453,
2011-02-03, 02:21:04,VALID,996.921,VALID,0,VALID,88.2137,VALID,0,VALID,24.9112,VALID,185,VALID,1.12305,
2011-02-03, 02:22:04,VALID,996.929,VALID,0,VALID,88.206,VALID,0,VALID,24.8722,VALID,180,VALID,1.47305,
2011-02-03, 02:23:04,VALID,996.933,VALID,0,VALID,88.2442,VALID,0.112286,VALID,24.8527,VALID,183,VALID,1.48633,
2011-02-03, 02:24:04,VALID,996.943,VALID,0,VALID,88.2747,VALID,0,VALID,24.7727,VALID,182,VALID,1.48281,
2011-02-03, 02:25:04,VALID,996.944,VALID,0,VALID,88.4807,VALID,0,VALID,24.7356,VALID,182,VALID,1.17266,
2011-02-03, 02:26:04,VALID,996.922,VALID,0,VALID,88.7325,VALID,0,VALID,24.6965,VALID,182,VALID,0.938281,
2011-02-03, 02:27:04,VALID,996.949,VALID,0,VALID,88.8164,VALID,0,VALID,24.6361,VALID,182,VALID,0.703906,
2011-02-03, 02:28:04,VALID,996.903,VALID,0,VALID,88.9385,VALID,0,VALID,24.638,VALID,182,VALID,0.471484,
2011-02-03, 02:29:04,VALID,996.908,VALID,0,VALID,89.03,VALID,0,VALID,24.6184,VALID,182,VALID,0.326953,
2011-02-03, 02:30:04,VALID,996.917,VALID,0,VALID,89.0834,VALID,0,VALID,24.6184,VALID,281,VALID,0.704297,
2011-02-03, 02:31:04,VALID,996.892,VALID,0,VALID,89.0758,VALID,0,VALID,24.5794,VALID,307,VALID,0.788281,
2011-02-03, 02:32:04,VALID,996.922,VALID,0,VALID,89.2208,VALID,0,VALID,24.5794,VALID,308,VALID,0.629297,
2011-02-03, 02:33:04,VALID,996.903,VALID,0,VALID,89.3428,VALID,0,VALID,24.5599,VALID,308,VALID,0.703906,
2011-02-03, 02:34:04,VALID,996.878,VALID,0,VALID,89.4115,VALID,0,VALID,24.4995,VALID,350,VALID,0.956641,
2011-02-03, 02:35:04,VALID,996.886,VALID,0,VALID,89.5946,VALID,0,VALID,24.48,VALID,351,VALID,0.836719,
2011-02-03, 02:36:04,VALID,996.862,VALID,0,VALID,89.793,VALID,0,VALID,24.4623,VALID,351,VALID,1.04609,
2011-02-03, 02:37:04,VALID,996.843,VALID,0,VALID,89.9609,VALID,0,VALID,24.4214,VALID,351,VALID,0.918359,
2011-02-03, 02:38:04,VALID,996.848,VALID,0,VALID,90.1211,VALID,0,VALID,24.3824,VALID,351,VALID,0.734375,
2011-02-03, 02:39:04,VALID,996.902,VALID,0,VALID,90.2584,VALID,0,VALID,24.3842,VALID,351,VALID,0.891016,
2011-02-03, 02:40:04,VALID,996.859,VALID,0,VALID,90.3194,VALID,0,VALID,24.3433,VALID,351,VALID,0.631641,
2011-02-03, 02:41:04,VALID,996.861,VALID,0,VALID,90.4263,VALID,0,VALID,24.3452,VALID,351,VALID,0.448047,
2011-02-03, 02:42:04,VALID,996.878,VALID,0,VALID,90.5026,VALID,0,VALID,24.3452,VALID,351,VALID,0.448047,
2011-02-03, 02:43:04,VALID,996.899,VALID,0,VALID,90.5788,VALID,0,VALID,24.3043,VALID,351,VALID,0.511328,
2011-02-03, 02:44:04,VALID,996.914,VALID,0,VALID,90.6628,VALID,0,VALID,24.3257,VALID,351,VALID,0.548437,
2011-02-03, 02:45:04,VALID,996.939,VALID,0,VALID,90.7085,VALID,0,VALID,24.3452,VALID,351,VALID,0.442187,
2011-02-03, 02:46:04,VALID,996.95,VALID,0,VALID,90.7467,VALID,0,VALID,24.3452,VALID,351,VALID,0.290234,
2011-02-03, 02:47:04,VALID,996.935,VALID,0,VALID,90.7696,VALID,0,VALID,24.3257,VALID,351,VALID,0.300781,
2011-02-03, 02:48:04,VALID,996.959,VALID,0,VALID,90.7925,VALID,0,VALID,24.3062,VALID,351,VALID,0.142188,
2011-02-03, 02:49:04,VALID,996.947,VALID,0,VALID,90.8001,VALID,0,VALID,24.3257,VALID,351,VALID,0.0929687,
2011-02-03, 02:50:04,VALID,996.938,VALID,0,VALID,90.8306,VALID,0.112286,VALID,24.3043,VALID,351,VALID,0,
2011-02-03, 02:51:04,VALID,996.938,VALID,0,VALID,90.8306,VALID,0,VALID,24.3062,VALID,351,VALID,0,
2011-02-03, 02:52:04,VALID,996.969,VALID,0,VALID,90.8688,VALID,0,VALID,24.3062,VALID,351,VALID,0.109766,
2011-02-03, 02:53:04,VALID,996.967,VALID,0,VALID,90.9222,VALID,0,VALID,24.2848,VALID,351,VALID,0.0671875,
2011-02-03, 02:54:04,VALID,996.946,VALID,0,VALID,90.9527,VALID,0,VALID,24.2866,VALID,351,VALID,0.222656,
2011-02-03, 02:55:04,VALID,997.013,VALID,0,VALID,90.968,VALID,0,VALID,24.2866,VALID,351,VALID,0.373828,
2011-02-03, 02:56:04,VALID,997.011,VALID,0,VALID,90.9451,VALID,0,VALID,24.2458,VALID,351,VALID,0.408203,
2011-02-03, 02:57:04,VALID,997.004,VALID,0,VALID,91.0137,VALID,0,VALID,24.2671,VALID,351,VALID,0.478516,
2011-02-03, 02:58:04,VALID,996.994,VALID,0,VALID,91.0748,VALID,0,VALID,24.2671,VALID,351,VALID,0.660547,
2011-02-03, 02:59:04,VALID,997.027,VALID,0,VALID,91.1053,VALID,0,VALID,24.2671,VALID,351,VALID,0.753906,
2011-02-03, 03:00:04,VALID,997.054,VALID,0,VALID,91.1282,VALID,0,VALID,24.2866,VALID,148,VALID,1.01094,
2011-02-03, 03:01:04,VALID,997.081,VALID,0,VALID,91.1968,VALID,0,VALID,24.3452,VALID,141,VALID,1.00664,
2011-02-03, 03:02:04,VALID,997.094,VALID,0,VALID,91.2503,VALID,0,VALID,24.3647,VALID,139,VALID,0.912109,
2011-02-03, 03:03:04,VALID,997.132,VALID,0,VALID,91.3037,VALID,0,VALID,24.3842,VALID,139,VALID,0.739062,
2011-02-03, 03:04:04,VALID,997.163,VALID,0,VALID,91.3494,VALID,0,VALID,24.4037,VALID,139,VALID,0.596094,
2011-02-03, 03:05:04,VALID,997.205,VALID,0,VALID,91.3571,VALID,0,VALID,24.4037,VALID,170,VALID,0.804688,
2011-02-03, 03:06:04,VALID,997.26,VALID,0,VALID,91.3418,VALID,0,VALID,24.4019,VALID,172,VALID,1.08633,
2011-02-03, 03:07:04,VALID,997.303,VALID,0,VALID,91.3037,VALID,0,VALID,24.4623,VALID,229,VALID,1.36719,
2011-02-03, 03:08:04,VALID,997.304,VALID,0,VALID,91.2731,VALID,0,VALID,24.5404,VALID,277,VALID,1.475,
2011-02-03, 03:09:04,VALID,997.279,VALID,0,VALID,90.8535,VALID,0,VALID,24.5209,VALID,268,VALID,2.38164,
2011-02-03, 03:10:04,VALID,997.266,VALID,0,VALID,89.6557,VALID,0,VALID,24.6789,VALID,260,VALID,1.21875,
2011-02-03, 03:11:04,VALID,997.273,VALID,0,VALID,88.5036,VALID,0,VALID,24.7551,VALID,207,VALID,1.19805,
2011-02-03, 03:12:04,VALID,997.267,VALID,0,VALID,87.7254,VALID,0.112286,VALID,24.7532,VALID,241,VALID,1.81523,
2011-02-03, 03:13:04,VALID,997.236,VALID,0,VALID,87.5117,VALID,0,VALID,24.7532,VALID,299,VALID,2.21367,
2011-02-03, 03:14:04,VALID,997.25,VALID,0,VALID,87.3744,VALID,0,VALID,24.7532,VALID,263,VALID,1.66992,
2011-02-03, 03:15:04,VALID,997.221,VALID,0,VALID,87.3515,VALID,0,VALID,24.7941,VALID,266,VALID,0.621875,
2011-02-03, 03:16:04,VALID,997.193,VALID,0,VALID,87.5728,VALID,0,VALID,24.7551,VALID,258,VALID,0.711328,
2011-02-03, 03:17:04,VALID,997.186,VALID,0,VALID,87.7788,VALID,0,VALID,24.716,VALID,269,VALID,0.243359,
2011-02-03, 03:18:04,VALID,997.175,VALID,0,VALID,87.8169,VALID,0,VALID,24.6556,VALID,263,VALID,0.738672,
2011-02-03, 03:19:04,VALID,997.192,VALID,0,VALID,87.8627,VALID,0,VALID,24.6575,VALID,287,VALID,0.0476562,
2011-02-03, 03:20:04,VALID,997.192,VALID,0,VALID,88.084,VALID,0,VALID,24.6166,VALID,311,VALID,0.576563,
2011-02-03, 03:21:04,VALID,997.221,VALID,0,VALID,88.1374,VALID,0.112286,VALID,24.5775,VALID,331,VALID,0.152734,
2011-02-03, 03:22:04,VALID,997.254,VALID,0,VALID,88.1603,VALID,0,VALID,24.5385,VALID,288,VALID,0.408984,
2011-02-03, 03:23:04,VALID,997.308,VALID,0,VALID,88.2137,VALID,0,VALID,24.5385,VALID,290,VALID,0.213672,
2011-02-03, 03:24:04,VALID,997.355,VALID,0,VALID,88.2976,VALID,0.112286,VALID,24.5404,VALID,290,VALID,0,
2011-02-03, 03:25:04,VALID,997.339,VALID,0,VALID,88.3815,VALID,0.112286,VALID,24.519,VALID,290,VALID,0,
2011-02-03, 03:26:04,VALID,997.363,VALID,0,VALID,88.5036,VALID,0.112286,VALID,24.4995,VALID,290,VALID,0,
2011-02-03, 03:27:04,VALID,997.376,VALID,0,VALID,88.6028,VALID,0,VALID,24.4623,VALID,290,VALID,0.00703125,
2011-02-03, 03:28:04,VALID,997.386,VALID,0,VALID,88.5875,VALID,0,VALID,24.4623,VALID,290,VALID,0.310547,
2011-02-03, 03:29:04,VALID,997.42,VALID,0,VALID,88.5951,VALID,0,VALID,24.4428,VALID,290,VALID,0.228906,
2011-02-03, 03:30:04,VALID,997.416,VALID,0,VALID,88.6028,VALID,0,VALID,24.4623,VALID,290,VALID,0.229297,
2011-02-03, 03:31:04,VALID,997.422,VALID,0,VALID,88.6028,VALID,0,VALID,24.4233,VALID,290,VALID,0.257031,
2011-02-03, 03:32:04,VALID,997.398,VALID,0,VALID,88.6257,VALID,0,VALID,24.4428,VALID,290,VALID,0.345703,
2011-02-03, 03:33:04,VALID,997.401,VALID,0,VALID,88.6791,VALID,0,VALID,24.4428,VALID,290,VALID,0.362891,
2011-02-03, 03:34:04,VALID,997.411,VALID,0,VALID,88.6867,VALID,0,VALID,24.4428,VALID,290,VALID,0.222656,
2011-02-03, 03:35:04,VALID,997.431,VALID,0,VALID,88.7554,VALID,0,VALID,24.4623,VALID,290,VALID,0.241016,
2011-02-03, 03:36:04,VALID,997.436,VALID,0,VALID,88.824,VALID,0,VALID,24.4409,VALID,290,VALID,0.252344,
2011-02-03, 03:37:04,VALID,997.457,VALID,0.5,VALID,88.9614,VALID,0,VALID,24.4623,VALID,290,VALID,0.123438,
2011-02-03, 03:38:04,VALID,997.494,VALID,0,VALID,88.969,VALID,0,VALID,24.4642,VALID,290,VALID,0.127344,
2011-02-03, 03:39:04,VALID,997.482,VALID,0,VALID,88.9766,VALID,0,VALID,24.4642,VALID,290,VALID,0.242578,
2011-02-03, 03:40:04,VALID,997.493,VALID,0,VALID,89.0834,VALID,0,VALID,24.4642,VALID,167,VALID,0.667188,
2011-02-03, 03:41:04,VALID,997.517,VALID,0,VALID,89.2437,VALID,0,VALID,24.4428,VALID,151,VALID,0.869531,
2011-02-03, 03:42:04,VALID,997.53,VALID,0,VALID,89.4497,VALID,0,VALID,24.5013,VALID,151,VALID,0.952344,
2011-02-03, 03:43:04,VALID,997.568,VALID,0,VALID,89.5717,VALID,0,VALID,24.4995,VALID,151,VALID,0.935156,
2011-02-03, 03:44:04,VALID,997.557,VALID,0,VALID,89.6862,VALID,0,VALID,24.48,VALID,151,VALID,0.909766,
2011-02-03, 03:45:04,VALID,997.538,VALID,0,VALID,89.8083,VALID,0,VALID,24.5209,VALID,151,VALID,1.17031,
2011-02-03, 03:46:04,VALID,997.574,VALID,0,VALID,89.8235,VALID,0,VALID,24.5209,VALID,151,VALID,1.30664,